Flag for Germany Weather past 2 weeks in Aalen, Baden-Württemberg, Germany

Now
31 °F

Overcast.


Feels Like: 24 °F
Forecast: 30 / 36 °F
Wind: 7 mph from Southwest

Location: Stoetten

Current Time: Jan 29, 2015 at 2:13:04 PM

Latest Report: Jan 29, 2015 at 1:00 PM


Visibility: 44 mi

Pressure: 29.38 "Hg

Humidity: 79%

Dew point: 25 °F

Location of AalenLocation

Historic Weather in Aalen — Graph

°F

Aalen temperature yesterday

Maximum temperature yesterday: 33 °F (at 11:00 PM)
Minimum temperature yesterday: 29 °F (at 9:00 AM)
Average temperature yesterday: 30 °F

Past Weeks' High & Low Weather Summary

 TemperatureHumidityPressure
High46 °F (Jan 16, 5:00 AM)100% (Jan 14, 5:00 PM)30.46 "Hg (Jan 14, 5:00 PM)
Low26 °F (Jan 29, 8:00 AM)57% (Jan 15, 11:00 PM)29.38 "Hg (Jan 29, 1:00 PM)
Average30 °F94%30.03 "Hg
* Reported Jan 14 1:00 PM — Jan 29 1:00 PM, Aalen, Weather by CustomWeather, © 2014

Note: Actual official high and low records may vary slightly from our data, if they occured in-between our weather recording intervals... More about our weather records

Advertising

Aalen weather history for previous 24 hours

 ConditionsComfort  
Time TempWeatherWind HumidityBarometerVisibility
1:00 PM
Jan 29
31 °FOvercast.7 mph79%29.38 "Hg43 mi
12:00 PM29 °FPartly sunny.9 mph78%29.44 "Hg43 mi
11:00 AM28 °FPartly sunny.6 mph85%29.50 "Hg43 mi
10:00 AM28 °FPartly sunny.3 mph88%29.56 "Hg37 mi
9:00 AM26 °FPassing clouds.7 mph83%29.59 "Hg37 mi
8:00 AM26 °FPassing clouds.7 mph89%29.60 "Hg25 mi
7:00 AM27 °FOvercast.9 mph93%29.60 "Hg19 mi
6:00 AM29 °FFog.7 mph98%29.59 "Hg3 mi
5:00 AM29 °FLow clouds.7 mph99%29.59 "Hg0 mi
4:00 AM29 °FLight snow. Low clouds.7 mph98%29.60 "Hg0 mi
3:00 AM30 °FSnow. Low clouds.9 mph99%29.59 "Hg0 mi
2:00 AM32 °FLight snow. Low clouds.13 mph100%29.58 "Hg3 mi
1:00 AM33 °FSnow. Low clouds.14 mph98%29.56 "Hg3 mi
12:00 AM33 °FLight snow. Overcast.10 mph94%29.58 "Hg2 mi
11:00 PM
Jan 28
33 °FLight freezing rain. Overcast.12 mph91%29.60 "Hg4 mi
10:00 PM32 °FFog.13 mph95%29.64 "Hg17 mi
9:00 PM30 °FOvercast.13 mph92%29.67 "Hg28 mi
8:00 PM29 °FOvercast.9 mph92%29.72 "Hg28 mi
6:00 PM29 °FOvercast.12 mph94%29.83 "Hg31 mi
5:00 PM29 °FOvercast.12 mph95%29.89 "Hg31 mi
4:00 PM29 °FOvercast.10 mph95%29.92 "Hg37 mi
3:00 PM30 °FOvercast.9 mph94%29.95 "Hg47 mi
2:00 PM29 °FOvercast.8 mph95%30.00 "Hg43 mi
Weather by CustomWeather, © 2014

See weather overviewHow to use our weather pages